Télécharger nos applis :
Date Heure Temperature Direction Vent Rafales Pluie Pression Humidité Condition
JEU.
13
08:00 8°C 5 5 --- 1021 hPa 70% Ensoleillé / Ciel clair
11:00 15°C 5 5 --- 1019 hPa 43% Ensoleillé / Ciel clair
14:00 18°C 5 5 --- 1017 hPa 35% Ensoleillé / Ciel clair
17:00 19°C 0 10 --- 1016 hPa 34% Couvert
20:00 16°C 5 10 --- 1014 hPa 61% Couvert
23:00 12°C 5 10 --- 1015 hPa 72% Couvert
VEN.
14
02:00 11°C 10 20 0.2 mm 1015 hPa 84% Averses de pluie faible
05:00 10°C 5 15 0.6 mm 1013 hPa 95% Averses de pluie faible
08:00 9°C 5 15 1 mm 1014 hPa 99% Brouillard / Brumeux
11:00 16°C 10 15 --- 1013 hPa 68% Couvert
14:00 13°C 5 15 0.2 mm 1013 hPa 91% Averses de pluie faible
17:00 17°C 5 20 0.4 mm 1011 hPa 75% Peu nuageux
20:00 15°C 5 5 0.5 mm 1010 hPa 95% Peu nuageux
23:00 12°C 5 10 2.5 mm 1010 hPa 100% Brouillard / Brumeux
SAM.
15
02:00 11°C 15 35 9.5 mm 1010 hPa 99% Brouillard / Brumeux
05:00 10°C 10 30 1.4 mm 1012 hPa 95% Averses de pluie faible
08:00 10°C 10 20 0.7 mm 1014 hPa 84% Peu nuageux
11:00 13°C 10 15 --- 1014 hPa 59% Couvert
14:00 18°C 10 15 --- 1013 hPa 41% Peu nuageux
17:00 19°C 15 25 --- 1012 hPa 40% Peu nuageux
20:00 15°C 5 15 --- 1013 hPa 61% Peu nuageux
23:00 10°C 5 15 --- 1015 hPa 85% Couvert
DIM.
16
02:00 9°C 5 30 --- 1016 hPa 92% Couvert
05:00 7°C 5 20 --- 1015 hPa 97% Couvert
08:00 11°C 5 20 --- 1015 hPa 76% Couvert
11:00 16°C 10 15 --- 1014 hPa 50% Ciel voilé
14:00 20°C 10 15 --- 1012 hPa 39% Ciel voilé
17:00 22°C 10 20 --- 1011 hPa 39% Ensoleillé / Ciel clair
20:00 18°C 0 0 --- 1012 hPa 70% Peu nuageux
23:00 13°C 5 5 --- 1014 hPa 89% Ciel voilé
LUN.
17
02:00 12°C 5 5 --- 1014 hPa 87% Ciel voilé
05:00 11°C 5 0 --- 1013 hPa 89% Couvert
08:00 15°C 5 10 --- 1014 hPa 75% Couvert
11:00 15°C 5 5 0.6 mm 1015 hPa 86% Averses de pluie faible
14:00 23°C 10 15 0.3 mm 1013 hPa 45% Averses de pluie faible
17:00 25°C 5 15 --- 1011 hPa 42% Peu nuageux
20:00 18°C 5 10 0.6 mm 1013 hPa 90% Peu nuageux
23:00 15°C 5 5 0.2 mm 1014 hPa 98% Averses de pluie faible
MAR.
18
02:00 14°C 5 5 --- 1014 hPa 97% Couvert
05:00 13°C 0 0 0.1 mm 1013 hPa 96% Couvert
08:00 15°C 5 5 --- 1013 hPa 92% Couvert
11:00 23°C 10 20 --- 1011 hPa 47% Couvert
14:00 28°C 10 20 --- 1010 hPa 34% Couvert
17:00 28°C 10 20 --- 1008 hPa 36% Couvert
20:00 24°C 10 20 --- 1008 hPa 59% Couvert
23:00 16°C 0 0 --- 1009 hPa 99% Couvert
MER.
19
02:00 15°C 5 5 --- 1009 hPa 93% Couvert
05:00 14°C 5 5 0.3 mm 1008 hPa 95% Averses de pluie faible
08:00 15°C 5 5 0.8 mm 1008 hPa 98% Averses de pluie faible
11:00 16°C 5 15 0.5 mm 1007 hPa 96% Averses de pluie faible
14:00 16°C 5 10 1.9 mm 1007 hPa 98% Averses de pluie faible
17:00 14°C 20 20 5.5 mm 1007 hPa 99% Brouillard / Brumeux
20:00 13°C 5 15 4.1 mm 1010 hPa 95% Pluie
23:00 11°C 5 15 --- 1010 hPa 98% Ensoleillé / Ciel clair
JEU.
20
02:00 11°C 5 25 --- 1010 hPa 89% Ensoleillé / Ciel clair
05:00 12°C 10 25 --- 1010 hPa 79% Couvert
08:00 13°C 15 25 --- 1011 hPa 73% Couvert
11:00 12°C 15 25 0.5 mm 1013 hPa 93% Averses de pluie faible
14:00 17°C 10 20 0.4 mm 1015 hPa 65% Averses de pluie faible
17:00 16°C 10 20 2.1 mm 1016 hPa 90% Peu nuageux
20:00 12°C 10 15 2.3 mm 1019 hPa 98% Peu nuageux
23:00 10°C 5 15 0.1 mm 1022 hPa 99% Couvert
VEN.
21
02:00 10°C 5 15 --- 1022 hPa 99% Couvert
05:00 10°C 5 10 --- 1022 hPa 99% Couvert
08:00 11°C 5 5 --- 1023 hPa 95% Couvert
11:00 15°C 5 5 0.2 mm 1023 hPa 62% Ciel voilé
14:00 16°C 5 10 0.2 mm 1023 hPa 59% Peu nuageux
17:00 19°C 5 15 --- 1021 hPa 41% Couvert
20:00 16°C 5 15 --- 1022 hPa 68% Couvert
23:00 10°C 0 0 --- 1024 hPa 94% Ciel voilé
SAM.
22
02:00 8°C 0 0 --- 1025 hPa 98% Ciel voilé
05:00 7°C 5 5 --- 1025 hPa 98% Ensoleillé / Ciel clair
08:00 11°C 5 10 --- 1025 hPa 83% Ciel voilé
11:00 17°C 5 10 --- 1025 hPa 57% Ensoleillé / Ciel clair
14:00 19°C 10 15 --- 1023 hPa 48% Ciel voilé
17:00 19°C 10 15 --- 1023 hPa 46% Couvert
20:00 17°C 10 20 --- 1023 hPa 57% Peu nuageux
23:00 10°C 5 5 --- 1024 hPa 89% Ensoleillé / Ciel clair
DIM.
23
02:00 9°C 0 0 --- 1023 hPa 98% Ensoleillé / Ciel clair